Flag for Canada Weather past 2 weeks in Grande Prairie, Alberta, Canada

Now
36 °F

Light rain. Mostly cloudy.


Feels Like: 27 °F
Forecast: 32 / 50 °F
Wind: 14 mph from North

Location: Grande Prairie

Current Time: May 5, 2015 at 6:29:39 PM

Latest Report: May 5, 2015 at 5:00 PM


Visibility: 5 mi

Pressure: 30.08 "Hg

Humidity: 93%

Dew point: 34 °F

Location of Grande PrairieLocation

Historic Weather in Grande Prairie — Graph

°F

Grande Prairie temperature yesterday

Maximum temperature yesterday: 48 °F (at 1:00 PM)
Minimum temperature yesterday: 36 °F (at 7:00 AM)
Average temperature yesterday: 42 °F

Past Weeks' High & Low Weather Summary

 TemperatureHumidityPressure
High72 °F (Apr 21, 4:00 PM)100% (Apr 22, 7:45 PM)30.14 "Hg (Apr 22, 7:45 PM)
Low28 °F (Apr 25, 7:00 AM)26% (Apr 29, 6:00 PM)29.60 "Hg (Apr 28, 2:00 PM)
Average44 °F67%29.91 "Hg
* Reported Apr 20 5:00 PM — May 5 5:00 PM, Grande Prairie, Weather by CustomWeather, © 2015

Note: Actual official high and low records may vary slightly from our data, if they occured in-between our weather recording intervals... More about our weather records

Advertising

Grande Prairie weather history for previous 24 hours

 ConditionsComfort  
Time TempWeatherWind HumidityBarometerVisibility
5:00 PM
Tue, May 5
36 °FLight rain. Mostly cloudy.14 mph93%30.08 "Hg5 mi
4:00 PM36 °FLight rain. Mostly cloudy.12 mph87%30.06 "Hg3 mi
3:00 PM36 °FLight rain. Mostly cloudy.12 mph93%30.03 "Hg5 mi
2:00 PM36 °FLight snow. Overcast.10 mph93%30.01 "Hg5 mi
1:00 PM36 °FLight rain. Low clouds.10 mph93%29.99 "Hg3 mi
12:00 PM36 °FLight rain. Low clouds.9 mph93%29.97 "Hg10 mi
11:00 AM36 °FLight rain. Overcast.10 mph93%29.95 "Hg15 mi
10:00 AM36 °FLight rain. Low clouds.12 mph87%29.93 "Hg15 mi
9:55 AM36 °FLight rain. Low clouds.12 mph93%29.93 "Hg25 mi
9:00 AM37 °FLow clouds.8 mph87%29.93 "Hg15 mi
8:00 AM37 °FMostly cloudy.15 mph93%29.89 "Hg20 mi
7:00 AM39 °FOvercast.14 mph87%29.88 "Hg20 mi
6:00 AM39 °FOvercast.9 mph87%29.86 "Hg25 mi
5:00 AM41 °FOvercast.12 mph81%29.86 "Hg25 mi
4:00 AM41 °FOvercast.14 mph81%29.85 "Hg25 mi
3:00 AM41 °FOvercast.15 mph81%29.85 "Hg25 mi
2:00 AM43 °FOvercast.20 mph76%29.84 "Hg25 mi
1:00 AM43 °FMostly cloudy.22 mph76%29.84 "Hg25 mi
12:00 AM43 °FMostly cloudy.22 mph76%29.85 "Hg25 mi
11:00 PM
Mon, May 4
43 °FScattered showers. Mostly cloudy.22 mph76%29.86 "Hg25 mi
10:00 PM43 °FScattered showers. Mostly cloudy.24 mph81%29.87 "Hg25 mi
9:00 PM45 °FScattered showers. More clouds than sun.28 mph71%29.87 "Hg25 mi
8:00 PM45 °FLight rain. More clouds than sun.23 mph71%29.88 "Hg20 mi
7:00 PM45 °FLight rain. Overcast.28 mph76%29.91 "Hg20 mi
6:00 PM46 °FMostly cloudy.23 mph66%29.93 "Hg25 mi
Weather by CustomWeather, © 2015

See weather overviewHow to use our weather pages